Year,Month,Day,Hour,Minute,Value (Times are PST for temperature in C)
2021,08,13,00,00,26.80
2021,08,13,00,01,26.80
2021,08,13,00,02,26.80
2021,08,13,00,03,26.80
2021,08,13,00,04,26.80
2021,08,13,00,05,26.80
2021,08,13,00,06,26.80
2021,08,13,00,07,26.80
2021,08,13,00,08,26.80
2021,08,13,00,09,26.80
2021,08,13,00,10,26.70
2021,08,13,00,11,26.70
2021,08,13,00,12,26.70
2021,08,13,00,13,26.60
2021,08,13,00,14,26.60
2021,08,13,00,15,26.60
2021,08,13,00,16,26.50
2021,08,13,00,17,26.50
2021,08,13,00,18,26.40
2021,08,13,00,19,26.40
2021,08,13,00,20,26.40
2021,08,13,00,21,26.40
2021,08,13,00,22,26.40
2021,08,13,00,23,26.40
2021,08,13,00,24,26.40
2021,08,13,00,25,26.40
2021,08,13,00,26,26.40
2021,08,13,00,27,26.50
2021,08,13,00,28,26.50
2021,08,13,00,29,26.50
2021,08,13,00,30,26.60
2021,08,13,00,31,26.50
2021,08,13,00,32,26.50
2021,08,13,00,33,26.50
2021,08,13,00,34,26.50
2021,08,13,00,35,26.60
2021,08,13,00,36,26.60
2021,08,13,00,37,26.60
2021,08,13,00,38,26.50
2021,08,13,00,39,26.50
2021,08,13,00,40,26.40
2021,08,13,00,41,26.40
2021,08,13,00,42,26.30
2021,08,13,00,43,26.30
2021,08,13,00,44,26.20
2021,08,13,00,45,26.20
2021,08,13,00,46,26.10
2021,08,13,00,47,26.00
2021,08,13,00,48,25.90
2021,08,13,00,49,25.90
2021,08,13,00,50,25.80
2021,08,13,00,51,25.80
2021,08,13,00,52,25.80
2021,08,13,00,53,25.70
2021,08,13,00,54,25.60
2021,08,13,00,55,25.50
2021,08,13,00,56,25.50
2021,08,13,00,57,25.40
2021,08,13,00,58,25.30
2021,08,13,00,59,25.20
2021,08,13,01,00,25.10
2021,08,13,01,01,25.00
2021,08,13,01,02,24.90
2021,08,13,01,03,24.80
2021,08,13,01,04,24.80
2021,08,13,01,05,24.70
2021,08,13,01,06,24.60
2021,08,13,01,07,24.50
2021,08,13,01,08,24.50
2021,08,13,01,09,24.40
2021,08,13,01,10,24.30
2021,08,13,01,11,24.20
2021,08,13,01,12,24.10
2021,08,13,01,13,24.00
2021,08,13,01,14,23.80
2021,08,13,01,15,23.80
2021,08,13,01,16,23.70
2021,08,13,01,17,23.60
2021,08,13,01,18,23.50
2021,08,13,01,19,23.40
2021,08,13,01,20,23.30
2021,08,13,01,21,23.20
2021,08,13,01,22,23.20
2021,08,13,01,23,23.10
2021,08,13,01,24,23.00
2021,08,13,01,25,22.90
2021,08,13,01,26,22.90
2021,08,13,01,27,22.80
2021,08,13,01,28,22.70
2021,08,13,01,29,22.70
2021,08,13,01,30,22.60
2021,08,13,01,31,22.60
2021,08,13,01,32,22.50
2021,08,13,01,33,22.50
2021,08,13,01,34,22.40
2021,08,13,01,35,22.40
2021,08,13,01,36,22.40
2021,08,13,01,37,22.40
2021,08,13,01,38,22.30
2021,08,13,01,39,22.30
2021,08,13,01,40,22.30
2021,08,13,01,41,22.30
2021,08,13,01,42,22.30
2021,08,13,01,43,22.30
2021,08,13,01,44,22.30
2021,08,13,01,45,22.30
2021,08,13,01,46,22.30
2021,08,13,01,47,22.30
2021,08,13,01,48,22.30
2021,08,13,01,49,22.20
2021,08,13,01,50,22.20
2021,08,13,01,51,22.20
2021,08,13,01,52,22.20
2021,08,13,01,53,22.20
2021,08,13,01,54,22.20
2021,08,13,01,55,22.20
2021,08,13,01,56,22.10
2021,08,13,01,57,22.10
2021,08,13,01,58,22.10
2021,08,13,01,59,22.10
2021,08,13,02,00,22.10
2021,08,13,02,01,22.10
2021,08,13,02,02,22.00
2021,08,13,02,03,22.00
2021,08,13,02,04,22.00
2021,08,13,02,05,22.00
2021,08,13,02,06,21.90
2021,08,13,02,07,21.90
2021,08,13,02,08,21.90
2021,08,13,02,09,21.90
2021,08,13,02,10,21.90
2021,08,13,02,11,22.00
2021,08,13,02,12,22.10
2021,08,13,02,13,22.20
2021,08,13,02,14,22.40
2021,08,13,02,15,22.60
2021,08,13,02,16,22.80
2021,08,13,02,17,22.90
2021,08,13,02,18,23.10
2021,08,13,02,19,23.20
2021,08,13,02,20,23.30
2021,08,13,02,21,23.40
2021,08,13,02,22,23.50
2021,08,13,02,23,23.60
2021,08,13,02,24,23.60
2021,08,13,02,25,23.70
2021,08,13,02,26,23.70
2021,08,13,02,27,23.70
2021,08,13,02,28,23.70
2021,08,13,02,29,23.80
2021,08,13,02,30,23.80
2021,08,13,02,31,23.80
2021,08,13,02,32,23.70
2021,08,13,02,33,23.70
2021,08,13,02,34,23.60
2021,08,13,02,35,23.60
2021,08,13,02,36,23.60
2021,08,13,02,37,23.50
2021,08,13,02,38,23.30
2021,08,13,02,39,23.20
2021,08,13,02,40,23.20
2021,08,13,02,41,23.10
2021,08,13,02,42,23.10
2021,08,13,02,43,23.10
2021,08,13,02,44,23.20
2021,08,13,02,45,23.20
2021,08,13,02,46,23.20
2021,08,13,02,47,23.30
2021,08,13,02,48,23.30
2021,08,13,02,49,23.40
2021,08,13,02,50,23.40
2021,08,13,02,51,23.50
2021,08,13,02,52,23.60
2021,08,13,02,53,23.70
2021,08,13,02,54,23.70
2021,08,13,02,55,23.80
2021,08,13,02,56,23.80
2021,08,13,02,57,23.80
2021,08,13,02,58,23.80
2021,08,13,02,59,23.80
2021,08,13,03,00,23.80
2021,08,13,03,01,23.80
2021,08,13,03,02,23.70
2021,08,13,03,03,23.70
2021,08,13,03,04,23.70
2021,08,13,03,05,23.70
2021,08,13,03,06,23.70
2021,08,13,03,07,23.70
2021,08,13,03,08,23.70
2021,08,13,03,09,23.60
2021,08,13,03,10,23.60
2021,08,13,03,11,23.70
2021,08,13,03,12,23.70
2021,08,13,03,13,23.70
2021,08,13,03,14,23.70
2021,08,13,03,15,23.70
2021,08,13,03,16,23.70
2021,08,13,03,17,23.80
2021,08,13,03,18,23.80
2021,08,13,03,19,23.80
2021,08,13,03,20,23.90
2021,08,13,03,21,23.90
2021,08,13,03,22,24.00
2021,08,13,03,23,24.10
2021,08,13,03,24,24.10
2021,08,13,03,25,24.00
2021,08,13,03,26,23.90
2021,08,13,03,27,23.80
2021,08,13,03,28,23.70
2021,08,13,03,29,23.60
2021,08,13,03,30,23.50
2021,08,13,03,31,23.30
2021,08,13,03,32,23.20
2021,08,13,03,33,23.00
2021,08,13,03,34,22.90
2021,08,13,03,35,22.80
2021,08,13,03,36,22.70
2021,08,13,03,37,22.60
2021,08,13,03,38,22.50
2021,08,13,03,39,22.40
2021,08,13,03,40,22.30
2021,08,13,03,41,22.20
2021,08,13,03,42,22.00
2021,08,13,03,43,21.90
2021,08,13,03,44,21.70
2021,08,13,03,45,21.60
2021,08,13,03,46,21.40
2021,08,13,03,47,21.20
2021,08,13,03,48,21.10
2021,08,13,03,49,20.90
2021,08,13,03,50,20.70
2021,08,13,03,51,20.50
2021,08,13,03,52,20.40
2021,08,13,03,53,20.30
2021,08,13,03,54,20.10
2021,08,13,03,55,20.00
2021,08,13,03,56,19.90
2021,08,13,03,57,19.70
2021,08,13,03,58,19.60
2021,08,13,03,59,19.50
2021,08,13,04,00,19.40
2021,08,13,04,01,19.40
2021,08,13,04,02,19.30
2021,08,13,04,03,19.20
2021,08,13,04,04,19.20
2021,08,13,04,05,19.10
2021,08,13,04,06,19.00
2021,08,13,04,07,19.00
2021,08,13,04,08,18.90
2021,08,13,04,09,18.90
2021,08,13,04,10,18.80
2021,08,13,04,11,18.80
2021,08,13,04,12,18.80
2021,08,13,04,13,18.70
2021,08,13,04,14,18.70
2021,08,13,04,15,18.70
2021,08,13,04,16,18.60
2021,08,13,04,17,18.60
2021,08,13,04,18,18.60
2021,08,13,04,19,18.60
2021,08,13,04,20,18.50
2021,08,13,04,21,18.50
2021,08,13,04,22,18.50
2021,08,13,04,23,18.50
2021,08,13,04,24,18.50
2021,08,13,04,25,18.40
2021,08,13,04,26,18.40
2021,08,13,04,27,18.40
2021,08,13,04,28,18.50
2021,08,13,04,29,18.50
2021,08,13,04,30,18.50
2021,08,13,04,31,18.50
2021,08,13,04,32,18.50
2021,08,13,04,33,18.50
2021,08,13,04,34,18.60
2021,08,13,04,35,18.60
2021,08,13,04,36,18.60
2021,08,13,04,37,18.70
2021,08,13,04,38,18.70
2021,08,13,04,39,18.70
2021,08,13,04,40,18.80
2021,08,13,04,41,18.80
2021,08,13,04,42,18.80
2021,08,13,04,43,18.90
2021,08,13,04,44,18.90
2021,08,13,04,45,18.90
2021,08,13,04,46,19.00
2021,08,13,04,47,19.00
2021,08,13,04,48,19.00
2021,08,13,04,49,19.10
2021,08,13,04,50,19.10
2021,08,13,04,51,19.10
2021,08,13,04,52,19.10
2021,08,13,04,53,19.10
2021,08,13,04,54,19.10
2021,08,13,04,55,19.10
2021,08,13,04,56,19.10
2021,08,13,04,57,19.10
2021,08,13,04,58,19.10
2021,08,13,04,59,19.00
2021,08,13,05,00,19.10
2021,08,13,05,01,19.10
2021,08,13,05,02,19.10
2021,08,13,05,03,19.10
2021,08,13,05,04,19.10
2021,08,13,05,05,19.10
2021,08,13,05,06,19.10
2021,08,13,05,07,19.10
2021,08,13,05,08,19.10
2021,08,13,05,09,19.10
2021,08,13,05,10,19.10
2021,08,13,05,11,19.10
2021,08,13,05,12,19.10
2021,08,13,05,13,19.10
2021,08,13,05,14,19.10
2021,08,13,05,15,19.10
2021,08,13,05,16,19.10
2021,08,13,05,17,19.10
2021,08,13,05,18,19.10
2021,08,13,05,19,19.20
2021,08,13,05,20,19.20
2021,08,13,05,21,19.20
2021,08,13,05,22,19.20
2021,08,13,05,23,19.20
2021,08,13,05,24,19.30
2021,08,13,05,25,19.30
2021,08,13,05,26,19.40
2021,08,13,05,27,19.40
2021,08,13,05,28,19.40
2021,08,13,05,29,19.40
2021,08,13,05,30,19.40
2021,08,13,05,31,19.40
2021,08,13,05,32,19.40
2021,08,13,05,33,19.40
2021,08,13,05,34,19.30
2021,08,13,05,35,19.30
2021,08,13,05,36,19.30
2021,08,13,05,37,19.30
2021,08,13,05,38,19.30
2021,08,13,05,39,19.30
2021,08,13,05,40,19.40
2021,08,13,05,41,19.40
2021,08,13,05,42,19.40
2021,08,13,05,43,19.40
2021,08,13,05,44,19.40
2021,08,13,05,45,19.40
2021,08,13,05,46,19.40
2021,08,13,05,47,19.40
2021,08,13,05,48,19.40
2021,08,13,05,49,19.40
2021,08,13,05,50,19.40
2021,08,13,05,51,19.40
2021,08,13,05,52,19.40
2021,08,13,05,53,19.40
2021,08,13,05,54,19.40
2021,08,13,05,55,19.40
2021,08,13,05,56,19.40
2021,08,13,05,57,19.40
2021,08,13,05,58,19.40
2021,08,13,05,59,19.40
2021,08,13,06,00,19.30
2021,08,13,06,01,19.30
2021,08,13,06,02,19.30
2021,08,13,06,03,19.30
2021,08,13,06,04,19.30
2021,08,13,06,05,19.30
2021,08,13,06,06,19.20
2021,08,13,06,07,19.20
2021,08,13,06,08,19.20
2021,08,13,06,09,19.20
2021,08,13,06,10,19.10
2021,08,13,06,11,19.10
2021,08,13,06,12,19.10
2021,08,13,06,13,19.10
2021,08,13,06,14,19.10
2021,08,13,06,15,19.00
2021,08,13,06,16,19.00
2021,08,13,06,17,19.00
2021,08,13,06,18,18.90
2021,08,13,06,19,18.90
2021,08,13,06,20,18.90
2021,08,13,06,21,18.90
2021,08,13,06,22,18.90
2021,08,13,06,23,18.90
2021,08,13,06,24,18.90
2021,08,13,06,25,18.80
2021,08,13,06,26,18.80
2021,08,13,06,27,18.80
2021,08,13,06,28,18.80
2021,08,13,06,29,18.80
2021,08,13,06,30,18.80
2021,08,13,06,31,18.80
2021,08,13,06,32,18.80
2021,08,13,06,33,18.80
2021,08,13,06,34,18.80
2021,08,13,06,35,18.80
2021,08,13,06,36,18.80
2021,08,13,06,37,18.80
2021,08,13,06,38,18.80
2021,08,13,06,39,18.80
2021,08,13,06,40,18.80
2021,08,13,06,41,18.80
2021,08,13,06,42,18.80
2021,08,13,06,43,18.80
2021,08,13,06,44,18.80
2021,08,13,06,45,18.80
2021,08,13,06,46,18.80
2021,08,13,06,47,18.90
2021,08,13,06,48,18.90
2021,08,13,06,49,18.90
2021,08,13,06,50,18.90
2021,08,13,06,51,19.00
2021,08,13,06,52,19.00
2021,08,13,06,53,19.00
2021,08,13,06,54,19.10
2021,08,13,06,55,19.10
2021,08,13,06,56,19.10
2021,08,13,06,57,19.10
2021,08,13,06,58,19.10
2021,08,13,06,59,19.10
2021,08,13,07,00,19.10
2021,08,13,07,01,19.10
2021,08,13,07,02,19.10
2021,08,13,07,03,19.10
2021,08,13,07,04,19.10
2021,08,13,07,05,19.10
2021,08,13,07,06,19.10
2021,08,13,07,07,19.10
2021,08,13,07,08,19.10
2021,08,13,07,09,19.10
2021,08,13,07,10,19.10
2021,08,13,07,11,19.10
2021,08,13,07,12,19.10
2021,08,13,07,13,19.10
2021,08,13,07,14,19.10
2021,08,13,07,15,19.20
2021,08,13,07,16,19.20
2021,08,13,07,17,19.20
2021,08,13,07,18,19.20
2021,08,13,07,19,19.20
2021,08,13,07,20,19.20
2021,08,13,07,21,19.20
2021,08,13,07,22,19.20
2021,08,13,07,23,19.20
2021,08,13,07,24,19.10
2021,08,13,07,25,19.10
2021,08,13,07,26,19.10
2021,08,13,07,27,19.10
2021,08,13,07,28,19.20
2021,08,13,07,29,19.20
2021,08,13,07,30,19.20
2021,08,13,07,31,19.20
2021,08,13,07,32,19.20
2021,08,13,07,33,19.30
2021,08,13,07,34,19.30
2021,08,13,07,35,19.30
2021,08,13,07,36,19.40
2021,08,13,07,37,19.40
2021,08,13,07,38,19.40
2021,08,13,07,39,19.50
2021,08,13,07,40,19.50
2021,08,13,07,41,19.60
2021,08,13,07,42,19.60
2021,08,13,07,43,19.70
2021,08,13,07,44,19.70
2021,08,13,07,45,19.70
2021,08,13,07,46,19.80
2021,08,13,07,47,19.80
2021,08,13,07,48,19.90
2021,08,13,07,49,19.90
2021,08,13,07,50,20.00
2021,08,13,07,51,20.10
2021,08,13,07,52,20.10
2021,08,13,07,53,20.20
2021,08,13,07,54,20.20
2021,08,13,07,55,20.30
2021,08,13,07,56,20.30
2021,08,13,07,57,20.40
2021,08,13,07,58,20.50
2021,08,13,07,59,20.50
2021,08,13,08,00,20.60
2021,08,13,08,01,20.60
2021,08,13,08,02,20.70
2021,08,13,08,03,20.70
2021,08,13,08,04,20.70
2021,08,13,08,05,20.80
2021,08,13,08,06,20.80
2021,08,13,08,07,20.90
2021,08,13,08,08,20.90
2021,08,13,08,09,21.00
2021,08,13,08,10,21.00
2021,08,13,08,11,21.10
2021,08,13,08,12,21.10
2021,08,13,08,13,21.20
2021,08,13,08,14,21.20
2021,08,13,08,15,21.20
2021,08,13,08,16,21.20
2021,08,13,08,17,21.30
2021,08,13,08,18,21.30
2021,08,13,08,19,21.30
2021,08,13,08,20,21.40
2021,08,13,08,21,21.40
2021,08,13,08,22,21.40
2021,08,13,08,23,21.50
2021,08,13,08,24,21.50
2021,08,13,08,25,21.50
2021,08,13,08,26,21.50
2021,08,13,08,27,21.60
2021,08,13,08,28,21.60
2021,08,13,08,29,21.60
2021,08,13,08,30,21.50
2021,08,13,08,31,21.50
2021,08,13,08,32,21.50
2021,08,13,08,33,21.50
2021,08,13,08,34,21.60
2021,08,13,08,35,21.60
2021,08,13,08,36,21.60
2021,08,13,08,37,21.60
2021,08,13,08,38,21.60
2021,08,13,08,39,21.70
2021,08,13,08,40,21.70
2021,08,13,08,41,21.80
2021,08,13,08,42,21.80
2021,08,13,08,43,21.90
2021,08,13,08,44,21.90
2021,08,13,08,45,22.00
2021,08,13,08,46,22.00
2021,08,13,08,47,22.10
2021,08,13,08,48,22.10
2021,08,13,08,49,22.20
2021,08,13,08,50,22.30
2021,08,13,08,51,22.40
2021,08,13,08,52,22.50
2021,08,13,08,53,22.50
2021,08,13,08,54,22.60
2021,08,13,08,55,22.70
2021,08,13,08,56,22.80
2021,08,13,08,57,22.90
2021,08,13,08,58,22.90
2021,08,13,08,59,23.00
2021,08,13,09,00,23.10
2021,08,13,09,01,23.10
2021,08,13,09,02,23.20
2021,08,13,09,03,23.30
2021,08,13,09,04,23.30
2021,08,13,09,05,23.30
2021,08,13,09,06,23.40
2021,08,13,09,07,23.40
2021,08,13,09,08,23.50
2021,08,13,09,09,23.50
2021,08,13,09,10,23.60
2021,08,13,09,11,23.60
2021,08,13,09,12,23.70
2021,08,13,09,13,23.70
2021,08,13,09,14,23.70
2021,08,13,09,15,23.80
2021,08,13,09,16,23.80
2021,08,13,09,17,23.90
2021,08,13,09,18,23.90
2021,08,13,09,19,24.00
2021,08,13,09,20,24.00
2021,08,13,09,21,24.10
2021,08,13,09,22,24.10
2021,08,13,09,23,24.10
2021,08,13,09,24,24.10
2021,08,13,09,25,24.10
2021,08,13,09,26,24.10
2021,08,13,09,27,24.20
2021,08,13,09,28,24.20
2021,08,13,09,29,24.20
2021,08,13,09,30,24.30
2021,08,13,09,31,24.30
2021,08,13,09,32,24.40
2021,08,13,09,33,24.50
2021,08,13,09,34,24.60
2021,08,13,09,35,24.60
2021,08,13,09,36,24.70
2021,08,13,09,37,24.70
2021,08,13,09,38,24.80
2021,08,13,09,39,24.80
2021,08,13,09,40,24.80
2021,08,13,09,41,24.80
2021,08,13,09,42,24.80
2021,08,13,09,43,24.80
2021,08,13,09,44,24.80
2021,08,13,09,45,24.90
2021,08,13,09,46,25.00
2021,08,13,09,47,25.00
2021,08,13,09,48,25.00
2021,08,13,09,49,25.10
2021,08,13,09,50,25.10
2021,08,13,09,51,25.20
2021,08,13,09,52,25.20
2021,08,13,09,53,25.30
2021,08,13,09,54,25.30
2021,08,13,09,55,25.40
2021,08,13,09,56,25.40
2021,08,13,09,57,25.50
2021,08,13,09,58,25.50
2021,08,13,09,59,25.60
2021,08,13,10,00,25.60
2021,08,13,10,01,25.70
2021,08,13,10,02,25.70
2021,08,13,10,03,25.80
2021,08,13,10,04,25.80
2021,08,13,10,05,25.90
2021,08,13,10,06,25.90
2021,08,13,10,07,25.90
2021,08,13,10,08,26.00
2021,08,13,10,09,26.10
2021,08,13,10,10,26.10
2021,08,13,10,11,26.20
2021,08,13,10,12,26.30
2021,08,13,10,13,26.30
2021,08,13,10,14,26.40
2021,08,13,10,15,26.40
2021,08,13,10,16,26.40
2021,08,13,10,17,26.40
2021,08,13,10,18,26.40
2021,08,13,10,19,26.50
2021,08,13,10,20,26.50
2021,08,13,10,21,26.60
2021,08,13,10,22,26.60
2021,08,13,10,23,26.60
2021,08,13,10,24,26.60
2021,08,13,10,25,26.60
2021,08,13,10,26,26.60
2021,08,13,10,27,26.60
2021,08,13,10,28,26.60
2021,08,13,10,29,26.50
2021,08,13,10,30,26.50
2021,08,13,10,31,26.50
2021,08,13,10,32,26.50
2021,08,13,10,33,26.60
2021,08,13,10,34,26.60
2021,08,13,10,35,26.60
2021,08,13,10,36,26.60
2021,08,13,10,37,26.60
2021,08,13,10,38,26.70
2021,08,13,10,39,26.60
2021,08,13,10,40,26.60
2021,08,13,10,41,26.60
2021,08,13,10,42,26.60
2021,08,13,10,43,26.70
2021,08,13,10,44,26.70
2021,08,13,10,45,26.70
2021,08,13,10,46,26.70
2021,08,13,10,47,26.70
2021,08,13,10,48,26.70
2021,08,13,10,49,26.70
2021,08,13,10,50,26.80
2021,08,13,10,51,26.80
2021,08,13,10,52,26.80
2021,08,13,10,53,26.80
2021,08,13,10,54,26.80
2021,08,13,10,55,26.80
2021,08,13,10,56,26.80
2021,08,13,10,57,26.80
2021,08,13,10,58,26.80
2021,08,13,10,59,26.80
2021,08,13,11,00,26.90
2021,08,13,11,01,26.90
2021,08,13,11,02,26.90
2021,08,13,11,03,26.90
2021,08,13,11,04,26.90
2021,08,13,11,05,26.90
2021,08,13,11,06,26.90
2021,08,13,11,07,26.90
2021,08,13,11,08,26.90
2021,08,13,11,09,26.90
2021,08,13,11,10,26.90
2021,08,13,11,11,26.90
2021,08,13,11,12,26.90
2021,08,13,11,13,26.90
2021,08,13,11,14,26.90
2021,08,13,11,15,26.90
2021,08,13,11,16,26.90
2021,08,13,11,17,27.00
2021,08,13,11,18,27.00
2021,08,13,11,19,27.00
2021,08,13,11,20,27.10
2021,08,13,11,21,27.10
2021,08,13,11,22,27.10
2021,08,13,11,23,27.10
2021,08,13,11,24,27.20
2021,08,13,11,25,27.20
2021,08,13,11,26,27.20
2021,08,13,11,27,27.30
2021,08,13,11,28,27.30
2021,08,13,11,29,27.30
2021,08,13,11,30,27.40
2021,08,13,11,31,27.40
2021,08,13,11,32,27.40
2021,08,13,11,33,27.40
2021,08,13,11,34,27.40
2021,08,13,11,35,27.50
2021,08,13,11,36,27.60
2021,08,13,11,37,27.60
2021,08,13,11,38,27.60
2021,08,13,11,39,27.60
2021,08,13,11,40,27.60
2021,08,13,11,41,27.60
2021,08,13,11,42,27.70
2021,08,13,11,43,27.70
2021,08,13,11,44,27.80
2021,08,13,11,45,27.80
2021,08,13,11,46,27.80
2021,08,13,11,47,27.90
2021,08,13,11,48,27.90
2021,08,13,11,49,27.90
2021,08,13,11,50,27.90
2021,08,13,11,51,27.90
2021,08,13,11,52,27.90
2021,08,13,11,53,27.90
2021,08,13,11,54,27.90
2021,08,13,11,55,27.90
2021,08,13,11,56,27.90
2021,08,13,11,57,27.90
2021,08,13,11,58,27.90
2021,08,13,11,59,27.90
2021,08,13,12,00,28.00
2021,08,13,12,01,28.00
2021,08,13,12,02,28.10
2021,08,13,12,03,28.10
2021,08,13,12,04,28.10
2021,08,13,12,05,28.20
2021,08,13,12,06,28.20
2021,08,13,12,07,28.30
2021,08,13,12,08,28.30
2021,08,13,12,09,28.40
2021,08,13,12,10,28.40
2021,08,13,12,11,28.40
2021,08,13,12,12,28.50
2021,08,13,12,13,28.50
2021,08,13,12,14,28.60
2021,08,13,12,15,28.60
2021,08,13,12,16,28.60
2021,08,13,12,17,28.60
2021,08,13,12,18,28.50
2021,08,13,12,19,28.50
2021,08,13,12,20,28.60
2021,08,13,12,21,28.60
2021,08,13,12,22,28.70
2021,08,13,12,23,28.70
2021,08,13,12,24,28.80
2021,08,13,12,25,28.90
2021,08,13,12,26,29.00
2021,08,13,12,27,29.10
2021,08,13,12,28,29.20
2021,08,13,12,29,29.30
2021,08,13,12,30,29.40
2021,08,13,12,31,29.50
2021,08,13,12,32,29.60
2021,08,13,12,33,29.60
2021,08,13,12,34,29.70
2021,08,13,12,35,29.70
2021,08,13,12,36,29.70
2021,08,13,12,37,29.70
2021,08,13,12,38,29.80
2021,08,13,12,39,29.80
2021,08,13,12,40,29.80
2021,08,13,12,41,29.70
2021,08,13,12,42,29.60
2021,08,13,12,43,29.50
2021,08,13,12,44,29.50
2021,08,13,12,45,29.50
2021,08,13,12,46,29.60
2021,08,13,12,47,29.60
2021,08,13,12,48,29.70
2021,08,13,12,49,29.60
2021,08,13,12,50,29.60
2021,08,13,12,51,29.70
2021,08,13,12,52,29.70
2021,08,13,12,53,29.70
2021,08,13,12,54,29.60
2021,08,13,12,55,29.40
2021,08,13,12,56,29.20
2021,08,13,12,57,29.10
2021,08,13,12,58,29.00
2021,08,13,12,59,28.90
2021,08,13,13,00,28.90
2021,08,13,13,01,29.00
2021,08,13,13,02,29.00
2021,08,13,13,03,29.10
2021,08,13,13,04,29.20
2021,08,13,13,05,29.30
2021,08,13,13,06,29.30
2021,08,13,13,07,29.30
2021,08,13,13,08,29.20
2021,08,13,13,09,29.20
2021,08,13,13,10,29.30
2021,08,13,13,11,29.40
2021,08,13,13,12,29.40
2021,08,13,13,13,29.50
2021,08,13,13,14,29.60
2021,08,13,13,15,29.70
2021,08,13,13,16,29.70
2021,08,13,13,17,29.80
2021,08,13,13,18,29.80
2021,08,13,13,19,29.80
2021,08,13,13,20,29.90
2021,08,13,13,21,29.90
2021,08,13,13,22,29.90
2021,08,13,13,23,29.90
2021,08,13,13,24,29.90
2021,08,13,13,25,29.90
2021,08,13,13,26,29.90
2021,08,13,13,27,29.90
2021,08,13,13,28,30.00
2021,08,13,13,29,30.00
2021,08,13,13,30,30.10
2021,08,13,13,31,30.10
2021,08,13,13,32,30.20
2021,08,13,13,33,30.20
2021,08,13,13,34,30.20
2021,08,13,13,35,30.10
2021,08,13,13,36,30.00
2021,08,13,13,37,29.90
2021,08,13,13,38,29.90
2021,08,13,13,39,29.80
2021,08,13,13,40,29.80
2021,08,13,13,41,29.80
2021,08,13,13,42,29.80
2021,08,13,13,43,29.90
2021,08,13,13,44,30.00
2021,08,13,13,45,30.10
2021,08,13,13,46,30.10
2021,08,13,13,47,30.10
2021,08,13,13,48,30.10
2021,08,13,13,49,30.10
2021,08,13,13,50,30.20
2021,08,13,13,51,30.30
2021,08,13,13,52,30.30
2021,08,13,13,53,30.30
2021,08,13,13,54,30.40
2021,08,13,13,55,30.40
2021,08,13,13,56,30.50
2021,08,13,13,57,30.50
2021,08,13,13,58,30.60
2021,08,13,13,59,30.70
2021,08,13,14,00,30.70
2021,08,13,14,01,30.70
2021,08,13,14,02,30.80
2021,08,13,14,03,30.80
2021,08,13,14,04,30.80
2021,08,13,14,05,30.80
2021,08,13,14,06,30.80
2021,08,13,14,07,30.80
2021,08,13,14,08,30.80
2021,08,13,14,09,30.80
2021,08,13,14,10,30.80
2021,08,13,14,11,30.80
2021,08,13,14,12,30.80
2021,08,13,14,13,30.70
2021,08,13,14,14,30.70
2021,08,13,14,15,30.70
2021,08,13,14,16,30.70
2021,08,13,14,17,30.70
2021,08,13,14,18,30.70
2021,08,13,14,19,30.70
2021,08,13,14,20,30.70
2021,08,13,14,21,30.70
2021,08,13,14,22,30.70
2021,08,13,14,23,30.70
2021,08,13,14,24,30.70
2021,08,13,14,25,30.70
2021,08,13,14,26,30.60
2021,08,13,14,27,30.60
2021,08,13,14,28,30.40
2021,08,13,14,29,30.30
2021,08,13,14,30,30.30
2021,08,13,14,31,30.30
2021,08,13,14,32,30.30
2021,08,13,14,33,30.20
2021,08,13,14,34,30.20
2021,08,13,14,35,30.20
2021,08,13,14,36,30.20
2021,08,13,14,37,30.10
2021,08,13,14,38,30.10
2021,08,13,14,39,30.10
2021,08,13,14,40,30.10
2021,08,13,14,41,30.10
2021,08,13,14,42,30.10
2021,08,13,14,43,30.20
2021,08,13,14,44,30.20
2021,08,13,14,45,30.30
2021,08,13,14,46,30.20
2021,08,13,14,47,30.20
2021,08,13,14,48,30.20
2021,08,13,14,49,30.20
2021,08,13,14,50,30.30
2021,08,13,14,51,30.30
2021,08,13,14,52,30.40
2021,08,13,14,53,30.60
2021,08,13,14,54,30.70
2021,08,13,14,55,30.80
2021,08,13,14,56,30.90
2021,08,13,14,57,31.00
2021,08,13,14,58,31.10
2021,08,13,14,59,31.10
2021,08,13,15,00,31.20
2021,08,13,15,01,31.20
2021,08,13,15,02,31.20
2021,08,13,15,03,31.20
2021,08,13,15,04,31.20
2021,08,13,15,05,31.20
2021,08,13,15,06,31.20
2021,08,13,15,07,31.20
2021,08,13,15,08,31.20
2021,08,13,15,09,31.20
2021,08,13,15,10,31.20
2021,08,13,15,11,31.10
2021,08,13,15,12,31.10
2021,08,13,15,13,31.10
2021,08,13,15,14,31.10
2021,08,13,15,15,31.10
2021,08,13,15,16,31.10
2021,08,13,15,17,31.10
2021,08,13,15,18,31.00
2021,08,13,15,19,30.90
2021,08,13,15,20,30.90
2021,08,13,15,21,31.00
2021,08,13,15,22,31.00
2021,08,13,15,23,31.10
2021,08,13,15,24,31.20
2021,08,13,15,25,31.20
2021,08,13,15,26,31.20
2021,08,13,15,27,31.30
2021,08,13,15,28,31.30
2021,08,13,15,29,31.20
2021,08,13,15,30,31.20
2021,08,13,15,31,31.10
2021,08,13,15,32,31.00
2021,08,13,15,33,30.80
2021,08,13,15,34,30.60
2021,08,13,15,35,30.40
2021,08,13,15,36,30.30
2021,08,13,15,37,30.20
2021,08,13,15,38,30.00
2021,08,13,15,39,29.90
2021,08,13,15,40,29.90
2021,08,13,15,41,29.80
2021,08,13,15,42,29.80
2021,08,13,15,43,29.80
2021,08,13,15,44,29.80
2021,08,13,15,45,29.80
2021,08,13,15,46,29.90
2021,08,13,15,47,30.00
2021,08,13,15,48,30.10
2021,08,13,15,49,30.20
2021,08,13,15,50,30.20
2021,08,13,15,51,30.30
2021,08,13,15,52,30.30
2021,08,13,15,53,30.30
2021,08,13,15,54,30.30
2021,08,13,15,55,30.30
2021,08,13,15,56,30.40
2021,08,13,15,57,30.40
2021,08,13,15,58,30.40
2021,08,13,15,59,30.40
2021,08,13,16,00,30.50
2021,08,13,16,01,30.50
2021,08,13,16,02,30.60
2021,08,13,16,03,30.60
2021,08,13,16,04,30.60
2021,08,13,16,05,30.60
2021,08,13,16,06,30.60
2021,08,13,16,07,30.60
2021,08,13,16,08,30.50
2021,08,13,16,09,30.40
2021,08,13,16,10,30.40
2021,08,13,16,11,30.40
2021,08,13,16,12,30.30
2021,08,13,16,13,30.30
2021,08,13,16,14,30.30
2021,08,13,16,15,30.30
2021,08,13,16,16,30.30
2021,08,13,16,17,30.20
2021,08,13,16,18,30.20
2021,08,13,16,19,30.20
2021,08,13,16,20,30.20
2021,08,13,16,21,30.10
2021,08,13,16,22,30.10
2021,08,13,16,23,30.00
2021,08,13,16,24,29.90
2021,08,13,16,25,29.80
2021,08,13,16,26,29.80
2021,08,13,16,27,29.80
2021,08,13,16,28,29.80
2021,08,13,16,29,29.80
2021,08,13,16,30,29.80
2021,08,13,16,31,29.80
2021,08,13,16,32,29.80
2021,08,13,16,33,29.80
2021,08,13,16,34,29.80
2021,08,13,16,35,29.80
2021,08,13,16,36,29.80
2021,08,13,16,37,29.80
2021,08,13,16,38,29.90
2021,08,13,16,39,29.90
2021,08,13,16,40,29.90
2021,08,13,16,41,29.90
2021,08,13,16,42,29.90
2021,08,13,16,43,29.80
2021,08,13,16,44,29.80
2021,08,13,16,45,29.70
2021,08,13,16,46,29.70
2021,08,13,16,47,29.70
2021,08,13,16,48,29.70
2021,08,13,16,49,29.70
2021,08,13,16,50,29.70
2021,08,13,16,51,29.80
2021,08,13,16,52,29.80
2021,08,13,16,53,29.90
2021,08,13,16,54,29.90
2021,08,13,16,55,30.00
2021,08,13,16,56,29.90
2021,08,13,16,57,29.90
2021,08,13,16,58,29.90
2021,08,13,16,59,29.90
2021,08,13,17,00,29.90
2021,08,13,17,01,29.80
2021,08,13,17,02,29.80
2021,08,13,17,03,29.80
2021,08,13,17,04,29.80
2021,08,13,17,05,29.80
2021,08,13,17,06,29.80
2021,08,13,17,07,29.80
2021,08,13,17,08,29.80
2021,08,13,17,09,29.80
2021,08,13,17,10,29.80
2021,08,13,17,11,29.90
2021,08,13,17,12,29.90
2021,08,13,17,13,29.90
2021,08,13,17,14,30.00
2021,08,13,17,15,30.00
2021,08,13,17,16,30.10
2021,08,13,17,17,30.10
2021,08,13,17,18,30.10
2021,08,13,17,19,30.20